ANIK F1R

Last updated on Sat Apr 13 2024 01:02:37 GMT+0100 (British Summer Time)

1 28868U 05036A 24103.47617301 -.00000082 00000+0 00000+0 0 9994 2 28868 2.2632 86.3852 0002963 312.8151 226.0771 1.00271962 38477
UTC large
Height (km)
Speed (km/s)
/
Latitude / Longitude
Inclination (degrees)
Orbital Period (minutes)
Azimuth
Elevation
Range (km)
Doppler Factor

Next 0 passes for location: London (51.5072 / 0.1276)

Sorry there are no passes over London.